FW3572 Weather Reports


Display with metric or nautical units.
time (UTC)temp
F
wind
direction
speed
MPH
gust
MPH
rain 1hr
in
rain 24hr
in
rain mn
in
humidity
%
barometer
mb
20190617070536 78 158 1.0 5.0 0.00 0.10 0.00 82 1017.7
20190617070059 78 152 1.0 6.0 0.00 0.10 0.00 82 1017.8
20190617065534 78 140 2.0 6.0 0.00 0.10 0.00 82 1017.7
20190617065032 78 190 1.0 4.0 0.00 0.10 0.00 82 1017.8
20190617064633 78 95 2.0 4.0 0.00 0.10 0.00 82 1017.8
20190617064038 78 138 2.0 4.0 0.00 0.10 0.00 83 1017.9
20190617063530 78 193 2.0 6.0 0.00 0.10 0.00 83 1018.0
20190617063104 78 138 2.0 6.0 0.00 0.10 0.00 83 1018.1
20190617062529 78 146 1.0 10.0 0.00 0.10 0.00 83 1018.1
20190617062029 78 122 2.0 8.0 0.00 0.10 0.00 84 1018.0
20190617061529 78 165 3.0 7.0 0.00 0.10 0.00 84 1018.1
20190617061032 78 140 2.0 10.0 0.00 0.10 0.00 84 1018.1
20190617060532 78 128 2.0 10.0 0.00 0.10 0.00 84 1018.1
20190617060053 78 150 5.0 10.0 0.00 0.10 0.00 84 1018.2
20190617055533 78 155 5.0 10.0 0.00 0.10 0.00 85 1018.1
20190617055026 78 131 2.0 5.0 0.00 0.10 0.00 85 1018.2
20190617054548 78 167 2.0 5.0 0.00 0.10 0.00 85 1018.3
20190617054026 78 130 1.0 5.0 0.00 0.10 0.00 85 1018.2
20190617053526 78 107 3.0 6.0 0.00 0.10 0.00 85 1018.2
20190617053026 78 119 2.0 9.0 0.00 0.10 0.00 86 1018.3
20190617052524 78 154 3.0 9.0 0.00 0.10 0.00 86 1018.2
20190617052024 77 133 3.0 9.0 0.00 0.10 0.00 86 1018.2
20190617051614 77 138 4.0 9.0 0.00 0.10 0.00 86 1018.1
20190617051025 77 119 2.0 6.0 0.00 0.10 0.00 86 1018.3
20190617050523 77 151 3.0 5.0 0.00 0.10 0.00 86 1018.3
20190617050043 77 135 2.0 6.0 0.00 0.10 0.00 86 1018.3
20190617045521 77 122 2.0 4.0 0.00 0.10 0.00 86 1018.3
20190617045029 77 121 1.0 5.0 0.00 0.10 0.00 86 1018.3
20190617044530 77 112 2.0 5.0 0.00 0.10 0.00 86 1018.5
20190617044019 77 123 2.0 8.0 0.00 0.10 0.00 86 1018.6
20190617043519 77 121 2.0 5.0 0.01 0.10 0.00 86 1018.6
20190617043041 77 163 2.0 8.0 0.01 0.10 0.00 86 1018.6
20190617042524 77 105 5.0 8.0 0.01 0.10 0.00 86 1018.7
20190617042019 77 101 3.0 9.0 0.01 0.10 0.00 86 1018.7
20190617041526 77 150 4.0 9.0 0.01 0.10 0.00 86 1018.8
20190617041015 76 145 2.0 7.0 0.02 0.10 0.00 86 1018.7
20190617040104 76 107 2.0 6.0 0.02 0.10 0.00 86 1018.8
20190617035513 76 96 1.0 4.0 0.02 0.10 0.10 86 1018.8
20190617035017 76 129 1.0 4.0 0.02 0.10 0.10 86 1018.9
20190617034517 76 115 1.0 5.0 0.02 0.10 0.10 86 1018.8
20190617034013 76 118 2.0 4.0 0.02 0.10 0.10 86 1018.8
20190617033513 76 97 1.0 4.0 0.01 0.09 0.09 86 1018.9
20190617033032 76 121 2.0 4.0 0.01 0.09 0.09 86 1018.9
20190617032512 76 146 2.0 4.0 0.01 0.09 0.09 85 1019.1
20190617032019 76 155 1.0 5.0 0.01 0.09 0.09 85 1019.1
20190617031539 77 159 2.0 5.0 0.01 0.09 0.09 84 1019.2
20190617031011 77 178 2.0 5.0 0.00 0.08 0.08 84 1019.2
20190617030513 77 153 1.0 5.0 0.00 0.08 0.08 84 1019.0
20190617030016 77 142 1.0 5.0 0.00 0.08 0.08 84 1019.0
20190617025515 77 134 0.0 3.0 0.00 0.08 0.08 83 1019.0
20190617025015 77 115 0.0 5.0 0.00 0.08 0.08 82 1019.0
20190617024540 77 148 2.0 5.0 0.00 0.08 0.08 82 1019.0
20190617024010 77 134 2.0 4.0 0.00 0.08 0.08 81 1018.9
20190617023516 78 163 1.0 8.0 0.00 0.08 0.08 81 1018.9
20190617023027 78 104 3.0 8.0 0.00 0.08 0.08 80 1018.7
20190617022510 78 144 2.0 8.0 0.00 0.08 0.08 80 1018.7
20190617022009 78 144 3.0 8.0 0.00 0.08 0.08 80 1018.7
20190617021524 78 155 2.0 7.0 0.00 0.08 0.08 79 1018.7
20190617021014 77 140 3.0 7.0 0.00 0.08 0.08 79 1018.7
20190617020513 77 141 1.0 4.0 0.00 0.08 0.08 79 1018.7
20190617020050 77 140 2.0 4.0 0.00 0.08 0.08 79 1018.7
20190617015508 77 140 2.0 4.0 0.00 0.08 0.08 79 1018.7
20190617015014 77 112 1.0 5.0 0.00 0.08 0.08 79 1018.6
20190617014544 77 140 2.0 6.0 0.00 0.08 0.08 79 1018.7
20190617014008 77 155 2.0 6.0 0.00 0.08 0.08 79 1018.6
20190617013508 77 151 1.0 6.0 0.00 0.08 0.08 78 1018.6
20190617013013 77 149 2.0 8.0 0.00 0.08 0.08 78 1018.5
20190617012508 77 153 3.0 8.0 0.00 0.08 0.08 78 1018.4
20190617012008 76 159 2.0 7.0 0.00 0.08 0.08 78 1018.5
20190617011511 76 136 3.0 7.0 0.00 0.08 0.08 77 1018.4
20190617011012 76 128 3.0 6.0 0.00 0.08 0.08 77 1018.4
20190617010510 76 175 1.0 3.0 0.00 0.08 0.08 76 1018.4
20190617010008 76 205 1.0 3.0 0.00 0.08 0.08 76 1018.3
20190617005509 76 226 1.0 3.0 0.00 0.08 0.08 75 1018.3
20190617005009 77 227 1.0 3.0 0.00 0.08 0.08 75 1018.2
20190617004537 77 217 1.0 3.0 0.00 0.08 0.08 75 1018.1
20190617004009 77 207 1.0 3.0 0.00 0.08 0.08 75 1018.1
20190617003512 77 209 1.0 3.0 0.00 0.08 0.08 75 1018.2
20190617003009 77 185 0.0 2.0 0.00 0.08 0.08 74 1018.1
20190617002506 77 184 0.0 3.0 0.00 0.08 0.08 74 1018.1
20190617002005 77 184 0.0 3.0 0.00 0.08 0.08 74 1018.1
20190617001508 77 142 1.0 7.0 0.00 0.08 0.08 74 1018.4
20190617001010 77 138 2.0 7.0 0.00 0.08 0.08 73 1018.4
20190617000509 77 160 1.0 3.0 0.00 0.08 0.08 74 1018.5
20190617000022 77 198 1.0 3.0 0.00 0.08 0.08 74 1018.6
20190616235509 77 207 1.0 4.0 0.00 0.08 0.08 74 1018.6
20190616235004 77 247 2.0 4.0 0.00 0.08 0.08 74 1018.6
20190616234507 77 218 1.0 4.0 0.00 0.08 0.08 74 1018.6
20190616234008 77 229 1.0 4.0 0.00 0.08 0.08 74 1018.6
20190616233506 77 209 1.0 5.0 0.00 0.08 0.08 75 1018.6
20190616233004 77 221 2.0 4.0 0.00 0.08 0.08 74 1018.6
20190616232504 77 182 2.0 9.0 0.00 0.08 0.08 75 1018.5
20190616232004 78 217 3.0 9.0 0.00 0.08 0.08 75 1018.5
20190616231505 78 169 3.0 7.0 0.00 0.08 0.08 75 1018.6
20190616231002 79 173 4.0 9.0 0.00 0.08 0.08 74 1018.5
20190616230501 79 192 3.0 9.0 0.00 0.08 0.08 74 1018.6
20190616230013 79 204 4.0 8.0 0.00 0.08 0.08 73 1018.6
20190616225505 80 207 4.0 9.0 0.00 0.08 0.08 73 1018.7
20190616225001 80 234 4.0 10.0 0.00 0.08 0.08 72 1018.7
20190616224510 80 189 4.0 12.0 0.00 0.08 0.08 73 1018.5
20190616224100 80 172 3.0 16.0 0.00 0.08 0.08 74 1018.6
20190616223604 80 138 8.0 17.0 0.00 0.08 0.08 75 1018.5
20190616223356 80 194 9.0 17.0 0.00 0.08 0.08 76 1018.4
20190616222604 81 144 7.0 11.0 0.00 0.08 0.08 77 1018.4
20190616222001 81 148 7.0 13.0 0.00 0.08 0.08 77 1018.4
20190616221758 81 167 4.0 13.0 0.00 0.08 0.08 77 1018.4
20190616221101 81 146 4.0 13.0 0.00 0.08 0.08 77 1018.3
20190616220613 81 148 5.0 11.0 0.00 0.08 0.08 77 1018.3
20190616220302 81 156 7.0 11.0 0.00 0.08 0.08 77 1018.4
20190616215558 81 149 4.0 11.0 0.00 0.08 0.08 78 1018.5
20190616215058 81 131 3.0 9.0 0.00 0.08 0.08 78 1018.5
20190616214649 81 123 3.0 10.0 0.00 0.08 0.08 77 1018.5
20190616214112 81 138 6.0 10.0 0.00 0.08 0.08 77 1018.5
20190616213604 81 138 4.0 10.0 0.00 0.08 0.08 78 1018.4
20190616213203 81 120 3.0 11.0 0.00 0.08 0.08 77 1018.2
20190616212603 81 145 4.0 15.0 0.00 0.08 0.08 77 1018.3
20190616212105 81 142 6.0 15.0 0.00 0.08 0.08 76 1018.3
20190616211630 81 145 5.0 10.0 0.00 0.08 0.08 76 1018.2
20190616211102 81 136 4.0 12.0 0.00 0.08 0.08 76 1018.2
20190616210604 81 141 5.0 12.0 0.00 0.08 0.08 75 1018.3
20190616210241 82 126 6.0 12.0 0.00 0.08 0.08 74 1018.3
20190616205555 82 173 4.0 10.0 0.00 0.08 0.08 75 1018.2
20190616205056 82 148 3.0 10.0 0.00 0.08 0.08 77 1018.2
20190616204652 82 105 2.0 11.0 0.00 0.08 0.08 78 1018.1
20190616204103 82 162 5.0 13.0 0.00 0.08 0.08 77 1018.2
20190616203555 82 175 5.0 13.0 0.00 0.08 0.08 77 1018.2
20190616202554 81 191 3.0 10.0 0.00 0.08 0.08 78 1018.2
20190616202054 81 135 4.0 10.0 0.00 0.08 0.08 78 1018.2
20190616201628 81 149 4.0 10.0 0.00 0.08 0.08 77 1018.3
20190616201059 81 169 3.0 7.0 0.00 0.08 0.08 77 1018.2
20190616200602 81 162 5.0 10.0 0.00 0.08 0.08 78 1018.2
20190616200142 81 146 6.0 11.0 0.00 0.08 0.08 78 1018.4
20190616195603 80 169 6.0 11.0 0.00 0.08 0.08 78 1018.4
20190616195101 80 136 5.0 13.0 0.00 0.08 0.08 77 1018.5
20190616194654 80 149 6.0 13.0 0.00 0.08 0.08 78 1018.6
20190616194101 80 148 6.0 14.0 0.00 0.08 0.08 78 1018.6
20190616193553 80 159 5.0 11.0 0.00 0.08 0.08 78 1018.7
20190616193105 80 165 5.0 11.0 0.00 0.08 0.08 78 1018.8
20190616192552 80 113 5.0 13.0 0.00 0.08 0.08 77 1018.8
20190616192051 80 153 8.0 12.0 0.00 0.08 0.08 77 1018.9
20190616191648 80 168 3.0 13.0 0.00 0.08 0.08 77 1018.8
20190616191058 80 147 7.0 13.0 0.00 0.08 0.08 76 1018.9
20190616190551 80 155 4.0 10.0 0.00 0.08 0.08 77 1019.0
20190616190253 80 130 5.0 10.0 0.00 0.08 0.08 77 1018.9
20190616185551 80 165 2.0 10.0 0.00 0.08 0.08 78 1018.9
20190616185051 80 146 5.0 11.0 0.00 0.08 0.08 78 1019.0
20190616184703 80 146 5.0 12.0 0.00 0.08 0.08 78 1019.0
20190616184050 80 118 5.0 11.0 0.00 0.08 0.08 78 1019.1
20190616183550 80 127 4.0 11.0 0.00 0.08 0.08 78 1019.1
20190616183205 80 144 5.0 10.0 0.00 0.08 0.08 77 1019.1
20190616182601 80 139 4.0 9.0 0.00 0.08 0.08 77 1019.1
20190616182049 80 155 3.0 10.0 0.00 0.08 0.08 78 1019.0
20190616181721 80 207 5.0 13.0 0.00 0.08 0.08 77 1019.2
20190616181049 80 171 5.0 11.0 0.00 0.08 0.08 76 1019.2
20190616180548 80 139 4.0 9.0 0.00 0.08 0.08 76 1019.1
20190616180115 80 151 3.0 10.0 0.00 0.08 0.08 76 1019.3
20190616175548 80 150 5.0 10.0 0.00 0.08 0.08 76 1019.3
20190616175055 79 134 4.0 9.0 0.00 0.08 0.08 77 1019.3
20190616174718 79 132 5.0 8.0 0.00 0.08 0.08 76 1019.5
20190616174049 79 157 4.0 8.0 0.00 0.08 0.08 77 1019.4
20190616173548 79 123 5.0 9.0 0.00 0.08 0.08 77 1019.4
20190616173149 79 107 6.0 9.0 0.00 0.08 0.08 77 1019.4
20190616172555 79 150 4.0 9.0 0.00 0.08 0.08 77 1019.3
20190616172051 79 166 3.0 8.0 0.00 0.08 0.08 79 1019.4
20190616171618 78 139 3.0 11.0 0.01 0.08 0.08 79 1019.5
20190616171052 78 124 6.0 11.0 0.01 0.08 0.08 80 1019.5
20190616170553 77 140 6.0 12.0 0.01 0.08 0.08 80 1019.5
20190616170253 77 173 5.0 10.0 0.01 0.08 0.08 81 1019.5
20190616165547 77 119 4.0 11.0 0.01 0.08 0.08 82 1019.6
20190616165056 77 171 6.0 11.0 0.01 0.08 0.08 81 1019.7
20190616164609 77 162 5.0 9.0 0.01 0.08 0.08 82 1019.7
20190616164046 77 135 3.0 7.0 0.01 0.08 0.08 83 1019.7
20190616163552 77 144 3.0 10.0 0.01 0.08 0.08 83 1019.8
20190616163121 77 149 5.0 11.0 0.01 0.08 0.08 83 1019.7
20190616162545 76 148 6.0 13.0 0.02 0.08 0.08 83 1019.7
20190616162056 76 196 4.0 13.0 0.02 0.08 0.08 84 1019.7
20190616161631 76 141 6.0 14.0 0.01 0.07 0.07 84 1019.6
20190616161044 76 130 6.0 13.0 0.01 0.07 0.07 85 1019.5
20190616160549 76 140 6.0 11.0 0.01 0.07 0.07 84 1019.5
20190616160101 76 200 3.0 8.0 0.02 0.07 0.07 85 1019.4
20190616155552 76 127 4.0 8.0 0.03 0.07 0.07 85 1019.5
20190616155054 76 175 2.0 9.0 0.03 0.07 0.07 86 1019.4
20190616154614 75 146 4.0 12.0 0.04 0.07 0.07 85 1019.5
20190616154047 74 126 6.0 12.0 0.04 0.07 0.07 85 1019.6
20190616153544 74 141 6.0 14.0 0.05 0.07 0.07 85 1019.7
20190616153101 74 121 6.0 14.0 0.05 0.07 0.07 85 1019.8
20190616152549 74 136 7.0 11.0 0.05 0.06 0.06 85 1019.9
20190616152047 74 148 5.0 14.0 0.06 0.06 0.06 85 1020.0
20190616151636 73 178 6.0 14.0 0.06 0.06 0.06 84 1020.0
20190616151040 74 165 6.0 13.0 0.06 0.06 0.06 85 1020.1
20190616150547 74 157 7.0 15.0 0.06 0.06 0.06 87 1020.0
20190616150053 74 165 7.0 15.0 0.05 0.05 0.05 87 1020.1
20190616145549 74 134 8.0 16.0 0.04 0.04 0.04 86 1020.1
20190616145038 74 122 7.0 22.0 0.04 0.04 0.04 86 1020.2
20190616144710 75 145 8.0 22.0 0.03 0.03 0.03 87 1020.2
20190616144036 75 153 8.0 19.0 0.03 0.03 0.03 86 1020.2
20190616143538 76 163 9.0 16.0 0.02 0.02 0.02 86 1020.0
20190616143038 76 169 8.0 16.0 0.01 0.01 0.01 86 1019.9
20190616142530 77 122 5.0 17.0 0.00 0.00 0.00 85 1019.9
20190616142029 77 135 7.0 13.0 0.00 0.00 0.00 83 1019.8
20190616141558 78 121 6.0 14.0 0.00 0.00 0.00 82 1019.8
20190616141026 78 162 6.0 14.0 0.00 0.00 0.00 81 1019.6
20190616140030 78 144 5.0 10.0 0.00 0.00 0.00 79 1019.4
20190616135531 79 135 5.0 9.0 0.00 0.00 0.00 80 1019.3
20190616135025 79 131 5.0 11.0 0.00 0.00 0.00 81 1019.4
20190616134619 79 88 5.0 14.0 0.00 0.00 0.00 81 1019.4
20190616134022 80 101 5.0 12.0 0.00 0.00 0.00 81 1019.3
20190616133526 80 127 4.0 12.0 0.00 0.00 0.00 79 1019.3
20190616133043 82 124 3.0 7.0 0.00 0.00 0.00 77 1019.3
20190616132529 82 104 4.0 7.0 0.00 0.00 0.00 77 1019.2
20190616132020 83 138 2.0 5.0 0.00 0.00 0.00 77 1019.0
20190616131547 82 214 1.0 6.0 0.00 0.00 0.00 77 1018.9
20190616131024 82 115 2.0 5.0 0.00 0.00 0.00 78 1018.8
20190616130523 81 92 2.0 6.0 0.00 0.00 0.00 78 1018.7
20190616130057 81 111 1.0 4.0 0.00 0.00 0.00 78 1018.7
20190616125521 81 149 1.0 3.0 0.00 0.00 0.00 78 1018.8
20190616125023 81 150 0.0 2.0 0.00 0.00 0.00 79 1018.7
20190616124541 81 150 0.0 2.0 0.00 0.00 0.00 79 1018.7
20190616124017 80 150 0.0 3.0 0.00 0.00 0.00 79 1018.7
20190616123518 80 150 1.0 6.0 0.00 0.00 0.00 79 1018.6
20190616123017 80 150 3.0 5.0 0.00 0.00 0.00 79 1018.6
20190616122515 80 184 2.0 5.0 0.00 0.00 0.00 79 1018.6
20190616122017 80 140 2.0 5.0 0.00 0.00 0.00 79 1018.6
20190616121546 80 178 1.0 3.0 0.00 0.00 0.00 79 1018.4
20190616121014 80 175 1.0 3.0 0.00 0.00 0.00 79 1018.4
20190616120517 80 164 0.0 0.0 0.00 0.00 0.00 79 1018.4
20190616120017 80 182 0.0 0.0 0.00 0.00 0.00 79 1018.4
20190616115512 80 163 0.0 0.0 0.00 0.00 0.00 80 1018.4
20190616115019 79 159 0.0 0.0 0.00 0.00 0.00 81 1018.3
20190616114520 79 231 0.0 0.0 0.00 0.00 0.00 82 1018.3
20190616114012 79 229 0.0 0.0 0.00 0.00 0.00 83 1018.4
20190616113517 79 229 0.0 0.0 0.00 0.00 0.00 83 1018.2
20190616113045 78 229 0.0 0.0 0.00 0.00 0.00 84 1018.3
20190616112511 78 229 0.0 0.0 0.00 0.00 0.00 84 1018.2
20190616112013 78 229 0.0 0.0 0.00 0.00 0.00 84 1018.2
20190616111514 78 229 0.0 0.0 0.00 0.00 0.00 84 1018.2
20190616111018 78 229 0.0 0.0 0.00 0.00 0.00 84 1018.3
20190616110510 78 229 0.0 0.0 0.00 0.00 0.00 84 1018.2
20190616110032 78 229 0.0 0.0 0.00 0.00 0.00 84 1018.2
20190616105518 78 174 0.0 0.0 0.00 0.00 0.00 84 1018.1
20190616105015 78 163 0.0 0.0 0.00 0.00 0.00 84 1017.9
20190616104555 78 163 0.0 0.0 0.00 0.00 0.00 84 1017.9
20190616104014 79 163 0.0 0.0 0.00 0.00 0.00 84 1017.9
20190616103510 78 163 0.0 0.0 0.00 0.00 0.00 84 1017.9
20190616103032 79 163 0.0 0.0 0.00 0.00 0.00 84 1017.8
20190616102516 79 163 0.0 0.0 0.00 0.00 0.00 84 1017.8
20190616102009 78 163 0.0 0.0 0.00 0.00 0.00 84 1017.8
20190616101542 79 163 0.0 0.0 0.00 0.00 0.00 84 1017.8
20190616101018 78 163 0.0 0.0 0.00 0.00 0.00 84 1017.7
20190616100509 78 163 0.0 0.0 0.00 0.00 0.00 84 1017.7
20190616100012 78 163 0.0 0.0 0.00 0.00 0.00 84 1017.5
20190616095515 78 163 0.0 0.0 0.00 0.00 0.00 84 1017.4
20190616095012 78 163 0.0 0.0 0.00 0.00 0.00 84 1017.5
20190616094512 78 163 0.0 0.0 0.00 0.00 0.00 85 1017.4
20190616094012 78 163 0.0 0.0 0.00 0.00 0.00 85 1017.5
20190616093512 78 162 0.0 0.0 0.00 0.00 0.00 85 1017.4
20190616093013 78 180 0.0 0.0 0.00 0.00 0.00 85 1017.4
20190616092511 78 193 0.0 0.0 0.00 0.00 0.00 85 1017.4
20190616092007 78 193 0.0 0.0 0.00 0.00 0.00 85 1017.4
20190616091518 78 193 0.0 0.0 0.00 0.00 0.00 85 1017.3
20190616091007 79 192 0.0 0.0 0.00 0.00 0.00 84 1017.3
20190616090505 79 192 0.0 0.0 0.00 0.00 0.00 85 1017.1
20190616090006 79 192 0.0 0.0 0.00 0.00 0.00 84 1017.1
20190616085505 79 193 0.0 0.0 0.00 0.00 0.00 84 1017.1
20190616085005 79 165 0.0 3.0 0.00 0.00 0.00 84 1017.1
20190616084506 79 165 0.0 5.0 0.00 0.00 0.00 84 1017.1
20190616084007 79 153 1.0 5.0 0.00 0.00 0.00 84 1017.1
20190616083504 79 148 1.0 3.0 0.00 0.00 0.00 83 1017.1
20190616083013 79 149 0.0 2.0 0.00 0.00 0.00 83 1017.2
20190616082506 79 149 0.0 2.0 0.00 0.00 0.00 83 1017.3
20190616082005 79 149 1.0 3.0 0.00 0.00 0.00 83 1017.2
20190616081519 79 149 0.0 3.0 0.00 0.00 0.00 83 1017.2
20190616081001 79 149 0.0 3.0 0.00 0.00 0.00 83 1017.2
20190616080505 79 149 0.0 4.0 0.00 0.00 0.00 83 1017.3
20190616080001 79 141 1.0 4.0 0.00 0.00 0.00 83 1017.4
20190616075502 79 173 1.0 4.0 0.00 0.00 0.00 83 1017.3
20190616074624 79 142 0.0 4.0 0.00 0.00 0.00 82 1017.4
20190616073604 79 147 0.0 2.0 0.00 0.00 0.00 82 1017.5
20190616073126 79 147 0.0 3.0 0.00 0.00 0.00 82 1017.4
20190616072559 79 147 1.0 3.0 0.00 0.00 0.00 82 1017.4
20190616072104 79 148 1.0 5.0 0.00 0.00 0.00 82 1017.5
20190616072001 79 148 1.0 5.0 0.00 0.00 0.00 82 1017.5
20190616071740 79 148 2.0 5.0 0.00 0.00 0.00 82 1017.5
20190616071101 79 148 1.0 4.0 0.00 0.00 0.00 82 1017.4
20190616070607 79 141 0.0 4.0 0.00 0.00 0.00 82 1017.5